Retour au catalogue

COSMOS 1198

ActifNavigationLEO
NORAD 11881·PAYLOAD·🇷🇺 Russia

Lancé Jul 9, 1980 depuis Plesetsk Cosmodrome

Loading…

Prochains Passages (prochaines 24 heures)

TLE

FraisSource: Space-Track

Époque: Sep 14, 2026, 06:53 UTC

1 11881U 80058G   26257.28747869 -.00000016  00000-0 -14791-5 0  9999
2 11881  74.0148  97.4713 0021752  65.8181  45.9917 12.43795047 96914

Suivez COSMOS 1198 en temps réel avec AllMySat

Download on the App Store